Tracking 18957 objects as of 22-Jan-2018
HD Live streaming from Space Station
objects crossing your sky now

FENGYUN 1C DEB

Track FENGYUN 1C DEB now!
10-day predictions


NORAD ID: 30222
Int'l Code: 1999-025WF
Perigee: 861.5 km
Apogee: 917.5 km
Inclination: 99.2 °
Period: 102.6 minutes
Semi major axis: 7260 km
RCS: 0.0447 m2 (small)
Launch date: May 10, 1999
Source: People's Republic of China (PRC)
Launch site: Taiyaun Space Center, China (TSC)

Note: This is SATELLITE DEBRIS
aabbcc
Your satellite tracking list
Your tracking list is empty




NASA's NSSDC Master Catalog

Two Line Element Set (TLE):
1 30222U 99025WF  18021.55836912 -.00000024  00000-0  13636-4 0  9995
2 30222  99.1793  39.9837 0038569 119.2653  33.1061 14.03298739564146
Source of the keplerian elements: AFSPC